Location: Miss�
(46.9484°N, 0.1922°W)
Time: 00:09:38
(UTC+00:00)

SPOT 3 Rocket - Pass Details

Date: 02 March 2021
Orbit: 778 x 795 km, 98.7° (Epoch: 20 April)

Event Time Altitude Azimuth Distance (km) Brightness Sun altitude
Exits shadow 20:49:40 56° 317° (NW) 946 4.1 -31.1°
Drops below altitude 10° 20:53:53 10° 342° (NNW) 2,373 6.5 -31.7°
Sets 20:56:14 0° 344° (NNW) 3,308 7.3 -32.1°
